Starlink 5464

operational
NORAD ID: 54758 Int'l Des: 2022-175 Owner: SPXS Country: US Constellation: starlink
LEOCIRCULAR

About Starlink 5464

Description loading...

Live Position

Loading 3D Globe...

Upcoming Passes

Altitude History

Altitude vs Time

uPlot chart will show altitude changes over time

Two-Line Element Set

1 54758U 22175A 25350.34054503 .00000750 00000-0 65219-4 0 9994
2 54758 53.2178 53.4833 0001302 95.4757 264.6383 15.08833200167406
Epoch: Dec 16, 2025 • Age: 13 hours

Current Status

Altitude 540.1 km
Velocity 7.60 km/s
Sub-Earth Point 22.06°N, 27.66°E
Launch Date Dec 17, 2022
Age 2.9 years
Type internet

Technical Details

Classification Payload
Mass 305.00 kg
Dry Mass 290.00 kg
Total Mass 305.00 kg
Length 0.20 m
Diameter 2.80 m
Span 9.00 m
Shape Box + pan
Manufacturer SPXS
Bus Type Starlink
Phase Status In Orbit
Owner/State SPXS/US

Large Constellations

Loading constellations...